Wind_Speed
3 10 4 12 9 11 11 11 12 19 10 3 5 12 16 11 9 8 7 7 9 9 10 13 15 16 19 17 13 9 3 14 23 22 17 28 25 28 22 20 22 21 18 17
8 4 9 6 8 10 11 10 11 7 8 2 8 11 11 14 10 8 6 7 8 9 11 13 15 17 18 18 20 14 9 6 9 14 14 21 26 32 21 17 13 15 16 17
10 12 7 6 4 12 10 7 12 13 15 10 12 17 15 15 15 12 10 7 8 10 11 13 15 17 18 20 19 20 14 9 10 13 15 17 16 34 25 15 13 20 19 20
7 3 5 4 6 8 10 9 9 11 12 12 15 12 13 18 16 13 10 7 7 10 11 13 14 16 17 19 20 19 17 12 10 14 14 15 22 22 20 24 29 27 22 18
7 9 12 8 10 8 7 9 12 14 14 15 17 11 13 13 16 15 12 6 8 9 11 13 14 15 15 17 18 20 20 16 13 11 12 18 18 29 19 26 30 31 24 19
9 6 8 8 10 5 11 13 15 15 13 12 18 15 16 4 7 13 8 5 7 9 11 13 14 15 16 17 20 16 19 20 17 13 13 15 21 25 25 30 29 30 32 29
9 9 5 14 12 3 10 11 6 6 8 12 17 12 13 10 10 8 5 7 9 10 12 15 17 18 18 19 20 21 17 19 21 18 14 16 17 21 30 22 26 22 26 26
3 5 9 9 7 7 10 6 5 5 8 11 10 6 7 10 9 7 7 8 9 10 12 16 19 19 19 21 20 21 21 21 18 20 19 15 18 19 25 25 32 25 26 25
8 3 3 5 6 7 6 4 9 6 12 11 10 5 7 6 8 8 10 12 15 14 17 19 18 19 22 23 22 22 21 22 20 20 22 17 17 18 24 28 31 29 29 30
5 4 3 2 3 3 4 7 3 1 5 10 8 11 3 5 6 9 12 15 18 18 18 18 18 21 24 24 24 22 22 21 23 20 22 20 16 19 21 29 30 30 27 24
4 5 3 2 4 2 3 3 3 6 6 5 7 1 4 5 6 8 14 16 15 17 19 18 18 21 23 24 23 24 25 23 23 22 24 21 18 18 23 22 22 27 31 25
4 5 5 6 4 3 5 6 5 4 4 7 8 9 2 3 8 13 18 19 18 17 17 18 19 22 22 23 24 25 26 27 23 21 24 23 19 19 22 24 27 28 22 22
9 4 7 7 5 6 5 7 9 9 8 11 8 4 3 9 11 16 18 20 19 17 17 17 20 21 20 21 25 26 25 26 26 24 21 22 19 19 22 21 21 26 24 25
4 7 8 8 4 3 8 11 11 11 8 11 11 13 13 13 11 16 18 18 19 19 17 18 18 19 18 23 23 26 30 26 25 21 21 20 18 18 22 20 23 23 26 28
3 6 8 7 10 15 18 18 16 15 16 15 11 16 15 8 11 16 19 18 17 18 19 19 19 18 18 24 24 27 26 22 21 20 20 19 16 17 19 16 22 20 21 24
4 6 2 6 13 11 16 17 18 19 17 17 16 16 10 12 16 19 20 20 16 19 20 19 19 20 20 26 24 26 23 21 19 18 18 14 16 17 16 12 16 16 15 16
8 3 5 8 6 16 14 5 5 10 6 4 9 10 10 13 17 19 19 18 14 19 20 20 19 19 22 25 26 23 21 18 14 13 13 11 12 16 13 13 11 13 15 15
9 7 6 8 12 6 1 4 5 4 8 7 6 10 12 15 19 21 18 7 19 19 19 18 19 17 18 26 23 19 17 12 6 5 9 8 16 9 16 19 22 21 19 18
12 7 6 4 9 15 11 3 2 1 5 8 10 8 8 12 18 11 4 17 19 20 19 19 19 18 17 21 18 16 13 9 5 3 6 8 17 13 14 17 17 19 22 19
5 7 5 8 8 5 2 3 8 6 4 9 5 2 4 6 5 2 17 19 18 18 17 17 18 19 18 16 14 13 11 12 10 1 5 10 11 15 13 13 17 15 15 17
5 5 9 9 7 8 4 7 4 3 1 0 4 7 8 6 10 15 14 14 14 16 16 15 20 19 17 16 12 16 13 11 13 13 5 13 13 11 12 15 16 14 12 12
3 2 3 5 4 5 12 7 5 1 3 6 6 5 3 9 11 9 9 12 12 14 16 14 20 17 16 15 15 20 20 16 13 17 19 17 16 14 15 15 15 14 13 13
4 5 3 3 5 3 15 9 11 7 8 7 5 5 4 5 6 6 7 11 11 11 11 12 18 16 18 18 16 18 17 21 24 19 19 20 20 20 21 19 17 16 16 15
9 15 5 6 5 14 22 18 17 12 13 9 7 6 4 5 6 7 6 6 7 7 7 7 15 15 17 18 17 12 13 13 16 18 23 22 19 19 18 19 19 19 18 16
11 7 8 14 21 22 18 17 19 18 14 13 10 8 6 5 5 4 5 5 5 6 7 8 11 11 11 11 12 12 12 13 13 13 16 19 21 21 17 17 16 15 14 14
15 13 9 5 9 11 8 14 19 20 19 16 13 11 9 8 6 5 4 3 3 4 5 7 7 7 8 8 8 9 11 10 11 12 15 14 12 10 14 18 17 16 16 15
Wind_Direction
221 258 41 21 3 326 308 303 316 94 97 335 256 276 159 152 159 173 130 81 68 52 36 25 17 8 2 352 339 320 310 225 235 225 225 253 187 189 205 209 199 202 205 211
246 105 37 1 348 318 311 303 291 271 90 43 291 276 249 156 165 115 85 73 47 37 25 17 11 8 8 360 353 348 328 296 213 210 215 219 207 207 204 192 206 199 210 216
47 35 5 329 345 344 297 306 355 338 341 303 263 266 264 157 140 141 122 88 51 30 20 13 7 5 5 357 355 351 348 304 270 243 223 218 234 203 207 211 239 213 212 217
43 49 325 300 67 354 310 26 329 309 301 291 303 287 244 185 157 174 124 78 39 15 12 9 4 358 357 355 347 347 348 337 290 264 242 205 206 206 216 214 216 218 216 217
53 41 357 24 6 341 330 339 300 289 280 285 271 267 259 139 170 173 107 57 31 10 5 2 357 352 347 344 342 340 340 343 324 285 263 231 218 218 228 229 220 224 219 225
84 105 42 355 306 265 309 295 284 258 251 259 261 254 258 358 49 86 78 28 6 353 349 349 346 344 340 338 333 334 335 331 326 312 275 257 231 223 234 229 227 229 231 235
143 62 105 4 330 182 351 321 293 247 217 240 256 246 58 96 72 63 28 352 346 346 346 343 338 337 335 333 331 328 323 323 321 313 294 265 251 241 224 231 233 235 236 231
340 191 11 15 21 328 306 325 311 312 322 319 308 246 95 90 63 29 3 347 339 339 340 336 330 328 328 328 326 321 313 312 313 312 296 280 259 239 227 220 219 230 249 244
358 43 144 44 349 343 2 331 334 307 273 266 260 150 122 102 17 359 346 339 338 338 330 326 323 322 324 321 320 316 312 304 298 303 295 284 261 250 220 221 213 228 234 238
334 307 89 13 300 208 282 322 343 250 286 295 290 320 126 329 340 341 339 339 326 324 324 324 322 320 317 314 312 305 306 304 297 288 297 284 268 252 240 219 226 225 240 245
311 270 183 200 181 256 228 264 330 299 277 291 304 3 176 227 303 332 315 324 330 321 318 323 318 319 314 312 310 310 304 303 300 294 287 282 271 257 243 227 222 225 242 246
40 305 291 301 85 183 250 287 278 273 306 305 296 289 194 323 324 323 330 320 316 315 323 323 317 314 313 310 307 306 304 300 296 289 285 280 270 255 239 234 223 222 238 238
353 260 301 166 194 210 240 267 282 267 256 258 276 274 304 299 333 333 324 321 324 320 318 317 314 310 312 309 305 306 303 296 293 285 277 275 263 251 240 217 210 213 209 205
320 276 287 274 326 292 280 261 254 250 267 274 280 310 320 325 343 330 321 316 315 313 321 314 307 314 309 311 309 307 303 296 294 284 275 265 253 240 234 216 208 203 210 219
257 280 315 321 299 280 276 275 272 258 262 268 292 296 306 342 318 322 314 317 322 319 316 314 315 315 309 318 320 314 310 300 288 278 262 258 238 223 217 209 211 199 200 215
202 273 15 294 286 261 269 266 267 263 262 263 283 279 292 318 323 318 314 319 326 324 318 316 318 315 312 324 326 322 313 300 285 271 259 240 219 208 195 194 189 182 182 192
281 252 300 286 307 309 284 280 263 259 246 191 254 271 297 307 313 305 318 315 324 320 318 319 320 319 322 325 326 321 316 309 287 262 234 218 188 195 188 168 166 158 159 162
273 277 268 283 303 273 152 194 176 233 275 213 246 254 268 283 295 302 306 313 322 321 316 316 319 324 330 322 329 329 327 317 296 232 204 196 184 173 183 168 172 170 165 165
231 271 299 296 302 284 279 186 181 146 284 221 235 260 263 289 304 291 332 333 323 320 325 330 333 334 332 326 337 348 337 347 335 216 191 160 172 161 161 174 174 167 170 170
243 254 245 289 300 286 194 183 180 166 269 79 154 251 260 308 302 326 323 324 325 328 336 337 345 345 340 341 352 1 4 16 17 220 156 162 185 175 166 159 170 178 173 178
263 246 250 268 260 256 164 197 172 254 72 93 207 215 226 226 249 298 313 325 334 346 350 356 354 350 351 357 8 21 14 29 42 53 115 136 138 135 163 164 161 155 159 163
245 279 246 233 250 267 167 175 214 144 233 269 288 270 242 271 293 295 316 342 346 351 0 346 348 358 11 18 29 29 23 31 67 65 67 87 99 111 127 129 132 136 137 138
234 205 289 276 242 185 195 222 217 235 255 269 271 289 300 308 330 337 325 342 348 347 359 327 354 7 16 18 31 26 17 20 39 65 79 86 93 93 99 108 113 120 125 127
221 197 231 275 274 251 244 238 239 242 237 249 255 260 286 300 320 326 333 342 348 352 350 345 352 13 7 6 19 23 27 34 24 40 54 72 83 97 104 111 114 117 115 115
268 257 243 255 269 263 253 238 226 225 228 234 240 248 261 270 289 311 321 339 349 354 357 1 0 22 15 9 16 18 34 40 41 54 44 41 49 68 82 93 102 108 115 121
249 238 226 246 271 243 278 230 214 214 218 221 226 234 241 245 258 272 286 309 336 352 1 7 11 25 31 30 31 30 41 45 57 55 72 75 80 59 52 72 84 90 96 102
Height
1502 1501 1502 1504 1506 1505 1500 1496 1490 1496 1505 1508 1505 1500 1507 1515 1518 1521 1524 1528 1532 1534 1535 1534 1532 1530 1527 1525 1524 1524 1526 1525 1528 1529 1529 1520 1519 1539 1551 1554 1552 1553 1558 1562
1502 1504 1511 1511 1510 1508 1504 1501 1496 1488 1499 1510 1506 1503 1502 1511 1515 1520 1526 1531 1534 1536 1536 1535 1534 1531 1529 1527 1524 1524 1524 1525 1527 1528 1530 1533 1536 1534 1546 1550 1551 1551 1553 1558
1512 1518 1517 1516 1513 1517 1506 1510 1511 1512 1505 1507 1510 1507 1502 1506 1516 1524 1528 1532 1536 1538 1538 1537 1535 1533 1531 1528 1526 1523 1522 1523 1525 1526 1529 1532 1537 1531 1540 1538 1546 1552 1551 1553
1519 1523 1522 1518 1519 1526 1521 1518 1519 1518 1517 1517 1501 1504 1493 1497 1513 1522 1528 1532 1536 1538 1538 1538 1537 1535 1533 1531 1527 1524 1523 1521 1522 1523 1524 1527 1531 1532 1532 1537 1543 1547 1550 1549
1530 1528 1526 1521 1529 1531 1523 1526 1524 1521 1519 1516 1509 1510 1498 1499 1510 1517 1527 1534 1536 1537 1538 1538 1537 1536 1534 1531 1528 1525 1522 1521 1518 1519 1520 1521 1523 1528 1528 1534 1539 1541 1543 1543
1529 1534 1537 1537 1532 1531 1530 1524 1517 1513 1515 1521 1506 1506 1497 1509 1514 1520 1530 1535 1536 1536 1536 1536 1536 1535 1533 1531 1527 1525 1523 1519 1519 1517 1515 1516 1518 1521 1525 1529 1534 1538 1538 1537
1525 1534 1537 1539 1530 1526 1528 1523 1522 1510 1512 1507 1487 1491 1517 1523 1528 1531 1534 1536 1536 1535 1534 1534 1534 1533 1531 1528 1526 1522 1520 1518 1515 1513 1513 1512 1512 1514 1518 1522 1527 1529 1536 1538
1523 1541 1540 1543 1543 1543 1536 1533 1533 1531 1513 1514 1495 1503 1528 1531 1534 1535 1536 1536 1535 1534 1533 1532 1532 1531 1528 1525 1523 1520 1517 1514 1513 1510 1507 1507 1507 1508 1512 1517 1521 1524 1527 1532
1539 1540 1544 1547 1546 1546 1537 1534 1534 1538 1529 1523 1508 1509 1526 1532 1535 1535 1535 1534 1533 1532 1531 1530 1529 1527 1524 1522 1519 1517 1513 1510 1508 1506 1503 1502 1502 1503 1505 1510 1515 1521 1521 1526
1544 1547 1541 1544 1547 1546 1545 1542 1540 1537 1537 1522 1501 1503 1529 1536 1534 1533 1532 1531 1531 1529 1529 1528 1526 1524 1521 1517 1514 1511 1509 1506 1502 1500 1498 1496 1497 1498 1499 1501 1507 1512 1517 1519
1546 1544 1541 1544 1545 1546 1542 1539 1541 1540 1537 1536 1529 1521 1538 1537 1532 1532 1531 1530 1529 1528 1526 1524 1522 1520 1517 1514 1510 1506 1503 1500 1497 1496 1493 1491 1491 1492 1494 1494 1498 1501 1509 1511
1550 1549 1544 1532 1540 1544 1546 1546 1544 1547 1541 1540 1541 1533 1526 1529 1530 1529 1529 1528 1526 1525 1523 1521 1519 1516 1513 1509 1506 1502 1498 1495 1492 1490 1488 1487 1486 1487 1488 1490 1493 1499 1503 1504
1553 1546 1539 1534 1543 1545 1545 1543 1542 1543 1544 1544 1545 1529 1529 1527 1526 1528 1527 1525 1523 1521 1520 1518 1515 1512 1509 1505 1501 1497 1493 1489 1486 1484 1483 1481 1481 1482 1484 1485 1488 1492 1496 1500
1560 1550 1546 1543 1547 1552 1546 1541 1538 1540 1541 1532 1526 1522 1526 1525 1526 1526 1525 1523 1521 1519 1516 1515 1512 1509 1505 1500 1496 1491 1486 1483 1479 1477 1476 1476 1476 1477 1479 1480 1484 1487 1492 1497
1557 1552 1549 1552 1551 1546 1541 1536 1532 1531 1532 1531 1527 1529 1527 1529 1527 1525 1523 1520 1518 1517 1515 1512 1508 1505 1501 1496 1491 1485 1479 1476 1474 1471 1470 1470 1472 1473 1474 1476 1480 1482 1487 1492
1550 1553 1558 1552 1536 1533 1533 1529 1527 1524 1524 1522 1523 1521 1523 1526 1526 1525 1522 1519 1518 1516 1512 1508 1505 1500 1495 1490 1485 1479 1474 1471 1467 1465 1464 1465 1467 1469 1472 1474 1476 1478 1482 1488
1548 1550 1551 1543 1539 1532 1525 1527 1527 1522 1524 1528 1531 1524 1525 1525 1527 1524 1520 1519 1517 1513 1509 1505 1501 1497 1491 1485 1480 1475 1470 1465 1462 1460 1461 1462 1463 1466 1468 1470 1474 1476 1481 1484
1547 1547 1549 1541 1535 1529 1527 1530 1531 1533 1527 1525 1523 1522 1525 1526 1524 1521 1519 1516 1514 1510 1506 1501 1496 1492 1488 1482 1477 1472 1467 1462 1460 1458 1458 1458 1460 1463 1464 1469 1469 1472 1476 1479
1542 1544 1545 1543 1536 1522 1506 1525 1527 1527 1521 1517 1519 1521 1523 1524 1522 1516 1516 1514 1510 1506 1502 1497 1493 1489 1485 1480 1474 1470 1465 1460 1458 1455 1455 1455 1457 1459 1460 1464 1464 1468 1472 1477
1539 1541 1545 1541 1545 1531 1521 1521 1522 1525 1515 1517 1518 1522 1524 1524 1521 1515 1513 1510 1506 1503 1499 1495 1492 1489 1484 1479 1475 1470 1465 1462 1458 1455 1454 1451 1456 1458 1459 1462 1460 1467 1471 1475
1536 1535 1537 1534 1533 1513 1520 1519 1519 1522 1519 1517 1516 1518 1519 1520 1518 1514 1511 1508 1504 1500 1497 1494 1491 1488 1484 1479 1476 1473 1467 1462 1459 1454 1454 1455 1455 1453 1460 1464 1466 1468 1471 1475
1541 1534 1530 1523 1521 1514 1514 1515 1518 1514 1514 1513 1513 1512 1513 1512 1511 1509 1508 1506 1502 1499 1496 1493 1491 1487 1484 1480 1477 1474 1471 1466 1463 1460 1455 1452 1451 1455 1461 1462 1465 1468 1470 1473
1536 1535 1527 1522 1515 1511 1510 1509 1510 1511 1512 1511 1511 1511 1510 1510 1508 1507 1506 1504 1502 1499 1497 1495 1492 1487 1484 1482 1478 1475 1473 1471 1467 1463 1462 1461 1461 1462 1462 1465 1468 1470 1472 1476
1518 1523 1523 1521 1505 1503 1504 1506 1507 1508 1509 1509 1509 1509 1508 1508 1507 1506 1505 1504 1502 1501 1499 1497 1493 1488 1485 1483 1480 1479 1477 1476 1473 1471 1470 1469 1469 1468 1469 1470 1470 1472 1474 1477
1517 1515 1513 1508 1500 1498 1496 1497 1500 1503 1505 1506 1507 1507 1507 1506 1505 1505 1504 1503 1501 1500 1498 1497 1494 1492 1490 1487 1484 1480 1479 1478 1477 1475 1474 1473 1472 1473 1473 1474 1475 1477 1479 1481
1504 1501 1505 1501 1494 1494 1492 1491 1495 1497 1500 1502 1504 1504 1504 1504 1504 1504 1503 1502 1501 1500 1498 1497 1495 1494 1493 1490 1487 1484 1482 1481 1481 1480 1480 1480 1482 1482 1482 1481 1481 1482 1483 1484